Location: Le Petit-Vavre
(46.5081°N, 1.5239°E)
Time: 20:54:53
(UTC+00:00)

SJ 16-02 - Pass Details

Date: 03 March 2021
Orbit: 605 x 617 km, 75.0° (Epoch: 20 April)

Event Time Altitude Azimuth Distance (km) Brightness Sun altitude
Rises 21:12:34 0° 330° (NNW) 2,883 5.6 -35.4°
Reaches altitude 10° 21:15:00 10° 320° (NW) 1,976 4.7 -35.8°
Enters shadow 21:16:21 18° 309° (NW) 1,531 4.0 -36.0°
